This is the latest recevied weather packets stored in our database for station/object W8BS. If no packets are shown the sender has not sent any weather packets the latest 10 day(s).
| Time | Temp. | Humidity | Pressure | Rain* | Wind** | Luminosity | Snow |
|---|---|---|---|---|---|---|---|
| 1777498068 | 13.33° C | 99% | 1006.4 hPa | 7.87 mm | - | 45 W/m² | - |
| 1777497764 | 14.44° C | 99% | 1006 hPa | 16.76 mm | - | 32 W/m² | - |
| 1777497455 | 14.44° C | 99% | 1006.1 hPa | 31.75 mm | - | 101 W/m² | - |
| 1777497151 | 15° C | 99% | 1006.2 hPa | 14.99 mm | - | 52 W/m² | - |
| 1777496848 | 15° C | 99% | 1005.9 hPa | 3.05 mm | - | 38 W/m² | - |
| 1777496545 | 15° C | 99% | 1005.9 hPa | 0 mm | - | 35 W/m² | - |
| 1777496241 | 15° C | 99% | 1005.7 hPa | 0 mm | - | 49 W/m² | - |
| 1777495937 | 15° C | 99% | 1005.9 hPa | 0 mm | - | 150 W/m² | - |
| 1777495633 | 15° C | 99% | 1006 hPa | 0 mm | - | 147 W/m² | - |
| 1777495330 | 15.56° C | 99% | 1006.1 hPa | 0 mm | - | 109 W/m² | - |
| 1777495027 | 15.56° C | 99% | 1006.1 hPa | 0 mm | - | 161 W/m² | - |
| 1777494724 | 15.56° C | 99% | 1005.7 hPa | 0 mm | - | 299 W/m² | - |
| 1777494422 | 15.56° C | 99% | 1006.1 hPa | 0 mm | - | 307 W/m² | - |
| 1777494117 | 15° C | 99% | 1006.1 hPa | 0 mm | - | 383 W/m² | - |
| 1777493815 | 15° C | 99% | 1006.3 hPa | 0 mm | - | 209 W/m² | - |
| 1777493513 | 15° C | 99% | 1005.9 hPa | 0 mm | - | 245 W/m² | - |
| 1777493210 | 15° C | 99% | 1006.4 hPa | 0 mm | - | 370 W/m² | - |
| 1777492906 | 14.44° C | 99% | 1006.2 hPa | 0 mm | - | 250 W/m² | - |
| 1777492603 | 14.44° C | 99% | 1006.1 hPa | 1.27 mm | - | 397 W/m² | - |
| 1777492298 | 13.89° C | 99% | 1006.2 hPa | 3.05 mm | - | 704 W/m² | - |
| 1777491995 | 13.89° C | 99% | 1006.3 hPa | 3.05 mm | - | 69 W/m² | - |
| 1777491692 | 13.89° C | 99% | 1006.7 hPa | 3.05 mm | - | 42 W/m² | - |
| 1777491390 | 13.89° C | 99% | 1006.6 hPa | 3.05 mm | - | 40 W/m² | - |
| 1777491087 | 13.89° C | 99% | 1006.9 hPa | 6.1 mm | - | 35 W/m² | - |
| 1777490782 | 13.89° C | 99% | 1006.9 hPa | 6.1 mm | - | 33 W/m² | - |
* Rain latest hour (hover to see other rain measurements)
** Current wind speed in m/s (hover to see current wind gust speed)